TimeMST,TemperatureF,Dew PointF,Humidity,Sea Level PressureIn,VisibilityMPH,Wind Direction,Wind SpeedMPH,Gust SpeedMPH,PrecipitationIn,Events,Conditions,WindDirDegrees,DateUTC
12:00 AM,12.2,10.4,92,30.23,9.0,NE,4.6,-,N/A,,Partly Cloudy,50,2013-03-06 07:00:00
1:00 AM,14.0,10.4,86,30.22,9.0,Variable,2.3,-,N/A,,Overcast,0,2013-03-06 08:00:00
2:00 AM,12.2,10.4,92,30.20,9.0,East,4.6,-,N/A,,Mostly Cloudy,80,2013-03-06 09:00:00
3:00 AM,12.2,8.6,85,30.18,9.0,NE,4.6,-,N/A,,Mostly Cloudy,40,2013-03-06 10:00:00
4:00 AM,14.0,10.4,86,30.15,9.0,East,4.6,-,N/A,,Overcast,90,2013-03-06 11:00:00
5:00 AM,-19,-24,68,30.44,,South,16.1,,,,,190,2013-03-06 12:00:00
6:00 AM,12.2,10.4,92,30.13,15.0,Calm,Calm,-,N/A,,Mostly Cloudy,0,2013-03-06 13:00:00
7:00 AM,10.4,8.6,92,30.10,30.0,North,4.6,-,N/A,,Mostly Cloudy,360,2013-03-06 14:00:00
8:00 AM,12.2,10.4,92,30.09,30.0,North,3.5,-,N/A,,Mostly Cloudy,350,2013-03-06 15:00:00
9:00 AM,15.8,12.2,86,30.08,30.0,NNW,4.6,-,N/A,,Mostly Cloudy,340,2013-03-06 16:00:00
10:00 AM,15.8,-9999,N/A,30.04,30.0,NNW,4.6,-,N/A,,Mostly Cloudy,340,2013-03-06 17:00:00
11:00 AM,-22,-28,62,30.42,,South,11.5,,,,,190,2013-03-06 18:00:00
11:00 AM,23.0,-9999,N/A,30.02,30.0,North,5.8,-,N/A,,Mostly Cloudy,360,2013-03-06 18:00:00
12:00 PM,23.0,-9999,N/A,29.97,30.0,NE,11.5,-,N/A,,Mostly Cloudy,50,2013-03-06 19:00:00
1:00 PM,26.6,-9999,N/A,29.96,30.0,Calm,Calm,-,N/A,,Mostly Cloudy,0,2013-03-06 20:00:00
2:00 PM,30.2,21.2,69,29.94,30.0,NNW,5.8,-,N/A,,Mostly Cloudy,330,2013-03-06 21:00:00
3:00 PM,28.4,17.6,64,29.93,30.0,North,11.5,-,N/A,,Mostly Cloudy,360,2013-03-06 22:00:00
4:00 PM,26.6,21.2,80,29.91,15.0,North,11.5,-,N/A,,Overcast,360,2013-03-06 23:00:00
5:00 PM,-28,-34,57,30.40,,SSE,3.5,,,,,150,2013-03-07 00:00:00
5:00 PM,24.8,19.4,80,29.91,15.0,North,17.3,-,N/A,,Overcast,360,2013-03-07 00:00:00
6:00 PM,24.8,19.4,80,29.93,15.0,NE,5.8,-,N/A,,Overcast,50,2013-03-07 01:00:00
6:32 PM,23.0,19.4,86,29.92,10.0,NE,5.8,-,N/A,Snow,Light Snow,50,2013-03-07 01:32:00
7:00 PM,24.8,19.4,80,29.93,3.0,NE,5.8,-,N/A,Snow,Light Snow,50,2013-03-07 02:00:00
7:16 PM,21.2,19.4,93,29.94,1.5,NE,11.5,-,N/A,Snow,Light Snow,50,2013-03-07 02:16:00
7:37 PM,21.2,19.4,93,29.94,2.0,NW,5.8,-,N/A,Snow,Light Snow,320,2013-03-07 02:37:00
8:00 PM,21.2,19.4,93,29.94,1.5,NW,5.8,-,N/A,Snow,Light Snow,320,2013-03-07 03:00:00
8:31 PM,21.2,17.6,86,29.94,2.5,NW,5.8,-,N/A,Snow,Light Snow,320,2013-03-07 03:31:00
11:00 PM,-31,-37,55,30.42,,SE,2.3,,,,,130,2013-03-07 06:00:00